DW7401 Weather Reports


Display with metric or nautical units.
time (UTC)temp
F
wind
direction
speed
MPH
gust
MPH
rain 1hr
in
rain 24hr
in
rain mn
in
humidity
%
barometer
mb
20260509023024 80 329 0.0 0.0 0.00 0.00 0.00 48 1012.8
20260509021521 80 297 0.0 0.0 0.00 0.00 0.00 45 1012.9
20260509020019 80 281 0.0 1.0 0.00 0.00 0.00 45 1012.9
20260509014533 79 291 1.0 3.0 0.00 0.00 0.00 47 1013.1
20260509013017 79 293 0.0 5.0 0.00 0.00 0.00 47 1013.0
20260509011516 79 343 0.0 5.0 0.00 0.00 0.00 46 1013.1
20260509010014 79 328 0.0 5.0 0.00 0.00 0.00 46 1013.1
20260509004513 79 297 2.0 7.0 0.00 0.00 0.00 44 1013.3
20260509003010 80 304 1.0 6.0 0.00 0.00 0.00 44 1013.4
20260509001508 80 305 1.0 6.0 0.00 0.00 0.00 43 1013.5
20260509000004 79 321 1.0 5.0 0.00 0.00 0.00 41 1013.7
20260508234502 78 12 0.0 7.0 0.00 0.00 0.00 43 1013.7
20260508233059 78 290 1.0 6.0 0.00 0.00 0.00 43 1013.9
20260508231559 78 310 0.0 6.0 0.00 0.00 0.00 46 1013.9
20260508230124 78 275 2.0 8.0 0.00 0.00 0.00 46 1014.2
20260508224558 77 356 2.0 8.0 0.00 0.00 0.00 49 1014.4
20260508223048 77 319 3.0 8.0 0.00 0.00 0.00 50 1014.7
20260508221546 77 330 0.0 8.0 0.00 0.00 0.00 51 1014.7
20260508220112 76 278 2.0 8.0 0.00 0.00 0.00 54 1014.9
20260508214543 75 300 2.0 8.0 0.00 0.00 0.00 55 1015.2
20260508213040 75 328 1.0 5.0 0.00 0.00 0.00 58 1015.3
20260508211545 74 249 3.0 10.0 0.00 0.00 0.00 56 1015.5
20260508210038 73 298 3.0 9.0 0.00 0.00 0.00 57 1015.6
20260508204536 74 349 1.0 8.0 0.00 0.00 0.00 61 1015.6
20260508203034 74 308 3.0 7.0 0.00 0.00 0.00 60 1015.7
20260508201534 73 212 2.0 6.0 0.00 0.00 0.00 61 1015.7
20260508200033 73 262 2.0 7.0 0.00 0.00 0.00 62 1015.9
20260508194532 72 285 2.0 7.0 0.00 0.00 0.00 66 1015.9
20260508193028 71 216 0.0 6.0 0.00 0.00 0.00 67 1016.0
20260508191525 71 283 2.0 6.0 0.00 0.00 0.00 68 1016.1
20260508190031 70 283 1.0 6.0 0.00 0.00 0.00 69 1016.2
20260508184531 71 252 1.0 7.0 0.00 0.00 0.00 69 1016.1
20260508183019 69 276 2.0 5.0 0.00 0.00 0.00 70 1016.2
20260508181517 68 221 0.0 3.0 0.00 0.00 0.00 73 1016.2
20260508180013 66 338 1.0 4.0 0.00 0.00 0.00 76 1016.2
20260508174527 65 209 0.0 3.0 0.00 0.00 0.00 77 1016.3
20260508173012 65 256 1.0 4.0 0.00 0.00 0.00 77 1016.4
20260508171512 65 266 2.0 6.0 0.00 0.00 0.00 78 1016.3
20260508170010 66 207 2.0 5.0 0.00 0.00 0.00 78 1016.1
20260508164510 65 270 1.0 4.0 0.00 0.00 0.00 78 1016.0
20260508163012 64 284 0.0 2.0 0.00 0.00 0.00 81 1015.9
20260508161508 61 221 0.0 3.0 0.00 0.00 0.00 85 1016.1
20260508160007 60 278 0.0 3.0 0.00 0.00 0.00 86 1016.2
20260508154507 59 213 1.0 5.0 0.00 0.00 0.00 85 1016.1
20260508153006 64 212 0.0 1.0 0.00 0.00 0.00 76 1016.1
20260508151504 64 203 0.0 1.0 0.00 0.00 0.00 73 1015.9
20260508150001 65 145 0.0 0.0 0.00 0.00 0.00 78 1015.7
20260508144606 63 163 0.0 0.0 0.00 0.00 0.00 82 1015.8
20260508143058 62 155 0.0 0.0 0.00 0.00 0.00 85 1015.7
20260508141558 60 155 0.0 0.0 0.00 0.00 0.00 89 1015.6
20260508140049 57 155 0.0 0.0 0.00 0.00 0.00 92 1015.6
20260508134558 55 155 0.0 0.0 0.00 0.00 0.00 93 1015.6
20260508133048 52 155 0.0 1.0 0.00 0.00 0.00 93 1015.5
20260508131547 52 156 0.0 0.0 0.00 0.00 0.00 93 1015.3
20260508130045 52 156 0.0 0.0 0.00 0.00 0.00 93 1015.3
20260508124544 52 156 0.0 0.0 0.00 0.00 0.00 93 1015.2
20260508123051 52 156 0.0 0.0 0.00 0.00 0.00 93 1015.1
20260508121544 53 159 0.0 0.0 0.00 0.00 0.00 93 1015.0
20260508120043 53 159 0.0 0.0 0.00 0.00 0.00 92 1015.0
20260508114547 54 160 0.0 0.0 0.00 0.00 0.00 93 1015.0
20260508113040 54 128 0.0 0.0 0.00 0.00 0.00 92 1014.9
20260508111539 55 128 0.0 0.0 0.00 0.00 0.00 92 1014.8
20260508110033 56 129 0.0 0.0 0.00 0.00 0.00 93 1014.8
20260508104532 55 128 0.0 0.0 0.00 0.00 0.00 92 1014.8
20260508103037 55 121 0.0 0.0 0.00 0.00 0.00 92 1014.9
20260508101531 55 121 0.0 0.0 0.00 0.00 0.00 92 1014.9
20260508100031 56 122 0.0 0.0 0.00 0.00 0.00 92 1015.0
20260508094529 55 143 0.0 0.0 0.00 0.00 0.00 92 1015.0
20260508093026 56 143 0.0 0.0 0.00 0.00 0.00 92 1015.1
20260508091532 56 143 0.0 0.0 0.00 0.00 0.00 92 1015.0
20260508090026 56 143 0.0 0.0 0.00 0.00 0.00 91 1014.9
20260508084521 57 142 0.0 0.0 0.00 0.00 0.00 91 1014.8
20260508083019 58 143 0.0 0.0 0.00 0.00 0.00 91 1014.8
20260508081539 58 143 0.0 0.0 0.00 0.00 0.00 91 1014.8
20260508080014 59 143 0.0 0.0 0.00 0.00 0.00 90 1014.8
20260508074513 59 142 0.0 0.0 0.00 0.00 0.00 90 1014.8
20260508073007 60 229 0.0 0.0 0.00 0.00 0.00 90 1014.8
20260508071505 60 233 0.0 0.0 0.00 0.00 0.00 90 1014.7
20260508070059 60 233 0.0 0.0 0.00 0.00 0.00 90 1014.7
20260508064600 60 233 0.0 0.0 0.00 0.00 0.00 89 1014.6
20260508063106 60 232 0.0 0.0 0.00 0.00 0.00 89 1014.7
20260508061558 60 233 0.0 0.0 0.00 0.00 0.00 88 1014.8
20260508060100 61 233 0.0 0.0 0.00 0.00 0.00 87 1014.8
20260508054557 62 232 0.0 0.0 0.00 0.00 0.00 87 1014.9
20260508053058 62 232 0.0 0.0 0.00 0.00 0.00 86 1014.9
20260508051556 63 233 0.0 0.0 0.00 0.00 0.00 85 1014.8
20260508050055 64 219 0.0 0.0 0.00 0.00 0.00 84 1014.8
20260508044554 65 219 0.0 0.0 0.00 0.00 0.00 82 1014.9
20260508043054 66 219 0.0 0.0 0.00 0.00 0.00 80 1014.8
20260508041553 67 219 0.0 0.0 0.00 0.00 0.00 78 1014.6
20260508040055 69 197 0.0 2.0 0.00 0.00 0.00 76 1014.6
20260508034552 70 200 0.0 2.0 0.00 0.00 0.00 73 1014.5
20260508033051 70 215 0.0 0.0 0.00 0.00 0.00 71 1014.3
20260508031553 72 217 0.0 0.0 0.00 0.00 0.00 69 1014.2
20260508030051 74 217 0.0 0.0 0.00 0.00 0.00 65 1014.1
20260508024553 76 215 0.0 0.0 0.00 0.00 0.00 60 1014.1